GW5561 Weather Reports


time (UTC)temp
C
wind
direction
speed
KPH
gust
KPH
rain 1hr
cm
rain 24hr
cm
rain mn
cm
humidity
%
barometer
mb
20260505140305 15 154 0.0 4.8 0.00 0.05 0.05 92 1002.3
20260505130228 13 98 0.0 3.2 0.00 0.05 0.05 98 1001.8
20260505124718 14 33 4.8 4.8 0.00 0.05 0.05 99 1001.9
20260505124215 14 76 0.0 0.0 0.00 0.05 0.05 99 1001.6
20260505123711 15 57 1.6 3.2 0.00 0.05 0.05 99 1001.6
20260505123208 15 49 3.2 4.8 0.00 0.05 0.05 99 1001.4
20260505122704 15 69 0.0 3.2 0.00 0.05 0.05 99 1001.5
20260505122202 15 19 1.6 1.6 0.00 0.05 0.05 99 1001.3
20260505121658 15 95 0.0 0.0 0.00 0.05 0.05 99 1000.8
20260505121155 15 67 0.0 0.0 0.00 0.05 0.05 99 1000.8
20260505120651 15 66 0.0 0.0 0.00 0.05 0.05 99 1001.0
20260505120147 15 67 0.0 0.0 0.00 0.05 0.05 99 1001.2
20260505115641 14 66 0.0 0.0 0.00 0.05 0.05 99 1000.8
20260505115139 14 92 0.0 0.0 0.00 0.05 0.05 99 1001.1
20260505114636 14 92 0.0 0.0 0.00 0.05 0.05 99 1000.5
20260505114132 14 95 0.0 0.0 0.00 0.05 0.05 99 1000.6
20260505113628 14 90 0.0 0.0 0.00 0.05 0.05 99 1000.8
20260505113125 14 67 0.0 0.0 0.00 0.05 0.05 99 1000.9
20260505112621 14 24 0.0 0.0 0.00 0.05 0.05 99 1000.5
20260505112120 14 89 0.0 1.6 0.00 0.05 0.05 99 1000.9
20260505111619 14 61 0.0 0.0 0.00 0.05 0.05 99 1001.2
20260505111115 14 40 1.6 1.6 0.00 0.05 0.05 99 1000.3
20260505110612 14 89 0.0 1.6 0.00 0.05 0.05 99 1000.4
20260505110109 14 97 0.0 3.2 0.00 0.05 0.05 99 1001.1
20260505102044 15 63 4.8 8.0 0.13 0.03 0.03 96 999.5
20260505101543 15 57 0.0 1.6 0.13 0.03 0.03 96 999.8
20260505101039 15 82 0.0 1.6 0.00 0.00 0.00 95 1001.0
20260505100536 15 93 0.0 0.0 0.00 0.00 0.00 95 1001.3
20260505100033 15 89 0.0 1.6 0.00 0.00 0.00 94 1001.2
20260505095529 15 82 0.0 0.0 0.00 0.00 0.00 95 1001.0
20260505095025 14 72 0.0 1.6 0.00 0.00 0.00 95 1000.9
20260505094522 14 69 0.0 0.0 0.00 0.00 0.00 95 1000.7
20260505094018 14 69 0.0 1.6 0.00 0.00 0.00 95 1000.8
20260505093515 14 64 0.0 0.0 0.00 0.00 0.00 95 1001.0
20260505093012 14 63 0.0 0.0 0.00 0.00 0.00 94 1000.8
20260505092510 14 63 0.0 0.0 0.00 0.00 0.00 94 1000.6
20260505092008 14 59 0.0 1.6 0.00 0.00 0.00 94 1000.6
20260505091504 14 75 0.0 0.0 0.00 0.00 0.00 93 1000.5
20260505091003 14 75 0.0 1.6 0.00 0.00 0.00 93 1000.5
20260505090500 15 76 0.0 0.0 0.00 0.00 0.00 93 1000.6
20260505085957 15 76 0.0 0.0 0.00 0.00 0.00 93 1000.6
20260505085455 15 76 0.0 0.0 0.00 0.00 0.00 92 1000.6
20260505084953 15 76 0.0 0.0 0.00 0.00 0.00 92 1000.7
20260505084451 15 76 0.0 0.0 0.00 0.00 0.00 92 1000.7
20260505083949 15 76 0.0 0.0 0.00 0.00 0.00 91 1000.6
20260505083446 15 76 0.0 0.0 0.00 0.00 0.00 91 1000.8
20260505082942 15 76 0.0 0.0 0.00 0.00 0.00 91 1000.7
20260505082438 15 76 0.0 0.0 0.00 0.00 0.00 90 1000.5
20260505081935 15 76 0.0 0.0 0.00 0.00 0.00 89 1000.5
20260505081432 15 76 0.0 0.0 0.00 0.00 0.00 89 1000.6
20260505080928 15 76 0.0 0.0 0.00 0.00 0.00 89 1000.5
20260505080425 15 76 0.0 0.0 0.00 0.00 0.00 88 1000.6
20260505075920 15 76 0.0 0.0 0.00 0.00 0.00 88 1000.5
20260505075417 15 76 0.0 0.0 0.00 0.00 0.00 88 1000.4
20260505074915 15 76 0.0 0.0 0.00 0.00 0.00 88 1000.7
20260505074412 16 76 0.0 0.0 0.00 0.00 0.00 87 1000.6
20260505073909 16 76 0.0 0.0 0.00 0.00 0.00 86 1000.7
20260505073407 16 76 0.0 0.0 0.00 0.00 0.00 84 1000.8
20260505072904 16 74 0.0 0.0 0.00 0.00 0.00 83 1000.8
20260505072400 16 83 0.0 0.0 0.00 0.00 0.00 82 1000.4
20260505071856 16 77 0.0 0.0 0.00 0.00 0.00 81 1000.6
20260505071352 16 71 0.0 0.0 0.00 0.00 0.00 81 1000.8
20260505070851 16 104 0.0 1.6 0.00 0.00 0.00 80 1000.5
20260505070346 17 94 0.0 0.0 0.00 0.00 0.00 79 1000.6
20260505065842 17 175 0.0 1.6 0.00 0.00 0.00 79 1000.6
20260505065339 17 116 0.0 4.8 0.00 0.00 0.00 78 1000.5
20260505064836 17 103 0.0 1.6 0.00 0.00 0.00 78 1000.4
20260505064333 17 100 1.6 1.6 0.00 0.00 0.00 78 1000.6
20260505063831 17 150 1.6 4.8 0.00 0.00 0.00 78 1000.7
20260505063327 17 74 0.0 1.6 0.00 0.00 0.00 78 1000.2
20260505062824 17 81 0.0 1.6 0.00 0.00 0.00 78 1000.5
20260505062321 17 153 4.8 4.8 0.00 0.00 0.00 78 1000.6
20260505061818 17 337 1.6 3.2 0.00 0.00 0.00 78 1000.5
20260505061316 17 115 1.6 3.2 0.00 0.00 0.00 78 1000.4
20260505060813 17 189 1.6 3.2 0.00 0.00 0.00 78 1000.7
20260505060310 17 138 0.0 3.2 0.00 0.00 0.00 78 1000.7
20260505055805 17 95 0.0 3.2 0.00 0.00 0.00 78 1000.8
20260505055303 17 249 1.6 3.2 0.00 0.00 0.00 78 1000.8
20260505054759 17 117 1.6 3.2 0.00 0.00 0.00 79 1000.7
20260505054257 16 115 1.6 1.6 0.00 0.00 0.00 80 1001.3
20260505053755 16 102 0.0 3.2 0.00 0.00 0.00 81 1001.2
20260505053251 16 94 0.0 3.2 0.00 0.00 0.00 81 1001.3
20260505052748 16 99 0.0 0.0 0.00 0.00 0.00 81 1000.9
20260505052245 16 97 0.0 1.6 0.00 0.00 0.00 82 1001.1
20260505051742 16 91 0.0 3.2 0.00 0.00 0.00 81 1001.1
20260505051240 16 101 0.0 1.6 0.00 0.00 0.00 80 1001.2
20260505050738 16 94 0.0 1.6 0.00 0.00 0.00 82 1001.3
20260505050236 16 97 0.0 3.2 0.00 0.00 0.00 81 1001.4
20260505041706 16 100 0.0 1.6 0.00 0.00 0.00 82 1002.0
20260505041203 16 101 0.0 0.0 0.00 0.00 0.00 82 1002.1
20260505040700 16 85 0.0 0.0 0.00 0.00 0.00 82 1002.1
20260505040157 17 87 0.0 0.0 0.00 0.00 0.00 81 1002.1
20260505035654 17 87 0.0 0.0 0.00 0.00 0.00 80 1001.9
20260505035150 17 55 0.0 1.6 0.00 0.00 0.00 77 1002.2
20260505034647 17 79 0.0 0.0 0.00 0.00 0.00 75 1002.3
20260505034144 17 108 0.0 1.6 0.00 0.00 0.00 76 1002.2
20260505033640 17 95 0.0 0.0 0.00 0.00 0.00 75 1002.2
20260505033139 17 102 0.0 1.6 0.00 0.00 0.00 74 1002.3
20260505032637 17 112 1.6 3.2 0.00 0.00 0.00 76 1002.3
20260505032132 17 108 0.0 3.2 0.00 0.00 0.00 76 1002.4
20260505031630 17 101 0.0 1.6 0.00 0.00 0.00 76 1002.0
20260505031126 17 102 0.0 1.6 0.00 0.00 0.00 77 1002.3
20260505030623 17 88 0.0 1.6 0.00 0.00 0.00 75 1002.1
20260505030119 17 107 0.0 1.6 0.00 0.00 0.00 76 1001.9
20260505025615 17 95 0.0 1.6 0.00 0.00 0.00 77 1002.0
20260505025114 17 62 0.0 1.6 0.00 0.00 0.00 76 1001.8
20260505024611 18 91 0.0 0.0 0.00 0.00 0.00 76 1001.9
20260505024108 18 101 0.0 0.0 0.00 0.00 0.00 74 1001.7
20260505023605 18 54 1.6 3.2 0.00 0.00 0.00 72 1001.8
20260505023103 18 90 0.0 1.6 0.00 0.00 0.00 74 1001.7
20260505022600 18 98 0.0 1.6 0.00 0.00 0.00 74 1001.5
20260505022057 17 55 0.0 3.2 0.00 0.00 0.00 74 1001.5
20260505021553 17 77 0.0 0.0 0.00 0.00 0.00 77 1001.7
20260505021050 18 86 0.0 0.0 0.00 0.00 0.00 77 1001.3
20260505020550 18 82 0.0 0.0 0.00 0.00 0.00 76 1001.3
20260505020047 18 91 0.0 0.0 0.00 0.00 0.00 73 1001.3
20260505015544 18 69 0.0 0.0 0.00 0.00 0.00 73 1001.3
20260505015041 18 78 0.0 0.0 0.00 0.00 0.00 71 1001.2
20260505014538 18 100 0.0 0.0 0.00 0.00 0.00 72 1001.2
20260505014035 18 104 0.0 0.0 0.00 0.00 0.00 73 1001.1
20260505013532 18 94 0.0 0.0 0.00 0.00 0.00 73 1001.0
20260505013029 20 101 0.0 0.0 0.00 0.00 0.00 71 1000.9
20260505012527 20 102 0.0 1.6 0.00 0.00 0.00 70 1001.1
20260505012024 20 90 0.0 0.0 0.00 0.00 0.00 69 1000.6
20260505011519 20 69 0.0 0.0 0.00 0.00 0.00 67 1000.7
20260505011017 20 66 0.0 1.6 0.00 0.00 0.00 66 1000.7
20260505010512 20 101 0.0 0.0 0.00 0.00 0.00 66 1000.6
20260505010009 21 101 0.0 0.0 0.00 0.00 0.00 69 1000.6
20260505005506 21 107 0.0 0.0 0.00 0.00 0.00 64 1000.7
20260505005004 21 100 0.0 0.0 0.00 0.00 0.00 64 1000.5
20260505004500 21 93 0.0 0.0 0.00 0.00 0.00 64 1000.4
20260505003956 21 84 0.0 0.0 0.00 0.00 0.00 62 1000.6
20260505003454 22 100 1.6 1.6 0.00 0.00 0.00 61 1000.3
20260505002950 22 111 0.0 3.2 0.00 0.00 0.00 60 1000.6
20260505002446 22 98 0.0 1.6 0.00 0.00 0.00 59 1000.6
20260505001945 22 193 3.2 8.0 0.00 0.00 0.00 55 1000.7
20260505001442 22 116 0.0 0.0 0.00 0.00 0.00 56 1000.5
20260505000939 23 160 1.6 3.2 0.00 0.00 0.00 56 1000.8
20260505000437 23 103 0.0 0.0 0.00 0.00 0.00 55 1000.5
20260504235933 23 91 1.6 4.8 0.00 0.00 0.00 55 1000.5
20260504235431 23 153 0.0 1.6 0.00 0.00 0.00 54 1000.8
20260504234926 23 95 0.0 3.2 0.00 0.00 0.00 54 1000.5
20260504234424 23 138 1.6 8.0 0.00 0.00 0.00 53 1000.6
20260504233921 23 96 0.0 3.2 0.00 0.00 0.00 54 1000.4
20260504233417 23 50 1.6 3.2 0.00 0.00 0.00 54 1000.4
20260504232913 24 126 0.0 3.2 0.00 0.00 0.00 54 1000.5
20260504232410 24 135 4.8 8.0 0.00 0.00 0.00 53 1000.7
20260504231908 24 183 3.2 4.8 0.00 0.00 0.00 54 1000.5
20260504231404 24 169 1.6 3.2 0.00 0.00 0.00 55 1000.7
20260504230900 24 104 4.8 4.8 0.00 0.00 0.00 54 1000.9
20260504230357 25 70 1.6 8.0 0.00 0.00 0.00 52 1000.6
20260504225856 25 142 4.8 4.8 0.00 0.00 0.00 54 1000.8
20260504225352 25 147 3.2 11.3 0.00 0.00 0.00 50 1000.8
20260504224850 25 112 1.6 4.8 0.00 0.00 0.00 54 1000.8
20260504224346 25 132 1.6 3.2 0.00 0.00 0.00 52 1000.8
20260504223843 25 142 1.6 4.8 0.00 0.00 0.00 52 1000.9
20260504223339 25 108 1.6 4.8 0.00 0.00 0.00 52 1000.6
20260504222835 25 157 1.6 3.2 0.00 0.00 0.00 53 1000.9
20260504222332 25 68 1.6 9.7 0.00 0.00 0.00 52 1000.8
20260504221831 25 227 4.8 8.0 0.00 0.00 0.00 48 1001.4
20260504221327 26 76 1.6 11.3 0.00 0.00 0.00 51 1001.0
20260504220824 26 91 0.0 1.6 0.00 0.00 0.00 51 1001.2
20260504220321 26 237 3.2 8.0 0.00 0.00 0.00 49 1001.0
20260504215819 26 114 3.2 4.8 0.00 0.00 0.00 50 1001.1
20260504215315 26 107 4.8 8.0 0.00 0.00 0.00 49 1001.3
20260504214811 26 266 14.5 16.1 0.00 0.00 0.00 47 1001.3
20260504214308 26 105 4.8 8.0 0.00 0.00 0.00 49 1001.3
20260504213804 26 249 3.2 4.8 0.00 0.00 0.00 50 1001.2
20260504213300 26 266 8.0 11.3 0.00 0.00 0.00 47 1001.6
20260504212758 26 207 1.6 9.7 0.00 0.00 0.00 51 1001.4
20260504212254 26 238 4.8 11.3 0.00 0.00 0.00 48 1001.6
20260504211752 26 132 1.6 8.0 0.00 0.00 0.00 49 1001.3
20260504211247 26 135 1.6 8.0 0.00 0.00 0.00 49 1001.5
20260504210745 26 128 4.8 8.0 0.00 0.00 0.00 49 1001.9
20260504210242 26 224 8.0 11.3 0.00 0.00 0.00 47 1001.8
20260504205739 26 233 1.6 8.0 0.00 0.00 0.00 47 1001.6
20260504205237 26 139 4.8 16.1 0.00 0.00 0.00 50 1001.5
20260504204735 26 133 4.8 4.8 0.00 0.00 0.00 50 1001.8
20260504204233 26 266 9.7 11.3 0.00 0.00 0.00 47 1001.5
20260504203732 26 166 6.4 9.7 0.00 0.00 0.00 47 1002.0
20260504203229 26 169 1.6 3.2 0.00 0.00 0.00 48 1002.1
20260504202729 26 131 3.2 4.8 0.00 0.00 0.00 51 1002.1
20260504202226 26 216 6.4 8.0 0.00 0.00 0.00 48 1002.1
20260504201724 26 293 3.2 9.7 0.00 0.00 0.00 48 1002.3
20260504201221 26 263 9.7 12.9 0.00 0.00 0.00 46 1002.4
20260504200718 26 111 1.6 3.2 0.00 0.00 0.00 48 1002.1
20260504200214 26 292 4.8 9.7 0.00 0.00 0.00 45 1002.5
20260504195711 26 189 6.4 9.7 0.00 0.00 0.00 46 1002.1
20260504195207 27 152 11.3 16.1 0.00 0.00 0.00 44 1002.2
20260504194704 27 127 3.2 8.0 0.00 0.00 0.00 47 1002.3
20260504194200 27 185 4.8 9.7 0.00 0.00 0.00 45 1002.4
20260504193656 27 96 1.6 3.2 0.00 0.00 0.00 47 1002.3
20260504193154 27 147 1.6 9.7 0.00 0.00 0.00 44 1002.6
20260504192652 27 243 4.8 11.3 0.00 0.00 0.00 44 1002.5
20260504192150 27 12 4.8 9.7 0.00 0.00 0.00 45 1002.7
20260504191648 27 253 6.4 8.0 0.00 0.00 0.00 46 1002.9
20260504191144 27 149 3.2 8.0 0.00 0.00 0.00 44 1002.7
20260504190640 27 121 0.0 3.2 0.00 0.00 0.00 47 1002.6
20260504190137 27 168 3.2 11.3 0.00 0.00 0.00 45 1002.7
20260504185633 27 83 3.2 9.7 0.00 0.00 0.00 45 1002.9
20260504185130 27 116 0.0 8.0 0.00 0.00 0.00 46 1002.7
20260504184626 27 36 1.6 8.0 0.00 0.00 0.00 46 1003.0
20260504184121 27 185 4.8 8.0 0.00 0.00 0.00 45 1002.9
20260504183618 27 205 3.2 4.8 0.00 0.00 0.00 45 1002.9
20260504183116 27 261 8.0 11.3 0.00 0.00 0.00 45 1003.0
20260504182614 27 258 4.8 9.7 0.00 0.00 0.00 44 1003.1
20260504182111 27 160 9.7 12.9 0.00 0.00 0.00 43 1003.2
20260504181608 27 94 3.2 4.8 0.00 0.00 0.00 47 1003.1
20260504181105 27 100 0.0 9.7 0.00 0.00 0.00 45 1003.0
20260504180604 27 311 1.6 8.0 0.00 0.00 0.00 46 1003.2
20260504180103 27 158 3.2 4.8 0.00 0.00 0.00 46 1003.2
20260504175600 27 127 3.2 8.0 0.00 0.00 0.00 50 1003.0
20260504175056 27 268 6.4 9.7 0.00 0.00 0.00 45 1002.9
20260504174555 27 122 1.6 3.2 0.00 0.00 0.00 50 1003.0
20260504174051 26 129 3.2 4.8 0.00 0.00 0.00 47 1003.1
20260504173548 26 57 1.6 8.0 0.00 0.00 0.00 48 1003.1
20260504173045 26 85 1.6 8.0 0.00 0.00 0.00 49 1003.2
20260504172541 26 151 4.8 12.9 0.00 0.00 0.00 48 1003.3
20260504172038 26 237 8.0 11.3 0.00 0.00 0.00 44 1003.3
20260504171535 26 197 6.4 9.7 0.00 0.00 0.00 45 1003.5
20260504171032 26 120 4.8 9.7 0.00 0.00 0.00 47 1003.4
20260504170528 26 257 8.0 12.9 0.00 0.00 0.00 46 1003.3
20260504150912 22 115 0.0 3.2 0.00 0.00 0.00 59 1004.3
20260504150409 22 111 1.6 8.0 0.00 0.00 0.00 56 1004.2